Regional Weather Roundup
Issued by NWS Columbia, SC

Home | Current Version | Previous Version | Text Only | Print | Product List | Glossary On
Versions: 1 2 3 4 5 6 7 8 9 10 11 12 13 14 15 16 17 18 19 20 21 22 23 24 25 26 27 28 29 30 31 32 33 34 35 36 37 38 39 40 41 42 43 44 45 46 47 48 49 50
000
ASUS42 KCAE 211510
RWRCAE
REGIONAL WEATHER ROUNDUP
NATIONAL WEATHER SERVICE COLUMBIA SC
1100 AM EDT TUE OCT 21 2014

NOTE: "FAIR" INDICATES FEW OR NO CLOUDS BELOW 12,000 FEET WITH NO
SIGNIFICANT WEATHER AND/OR OBSTRUCTIONS TO VISIBILITY.

NOT ALL STATIONS ARE QUALITY CONTROLLED BY THE NATIONAL
WEATHER SERVICE. USE DATA WITH CAUTION...ESPECIALLY
DEWPOINT OBSERVATIONS.

SCZ001>056-GAZ040-063>065-077-211600-
...UPSTATE SOUTH CAROLINA...

CITY           SKY/WX    TMP DP  RH WIND       PRES   REMARKS
ANDERSON       SUNNY    N/A N/A N/A W8        29.99F
LIBERTY        FAIR      64  56  74 MISG      29.98S
SPARTANBURG    FAIR      66  50  55 SW3       29.96F
CLEMSON        SUNNY     67  52  58 VRB5      30.00S
GREENVILLE     SUNNY     66  50  56 SW7       29.97F
GREENWOOD      SUNNY     65  52  62 VRB5      30.00F
GREER          SUNNY     65  50  58 SW7       29.96F
ROCK HILL      SUNNY     66  52  60 VRB6      29.96F
LAURENS        FAIR      64  43  45 W3        29.98F


...CENTRAL SOUTH CAROLINA...

CITY           SKY/WX    TMP DP  RH WIND       PRES   REMARKS
COLUMBIA APT   SUNNY     70  51  51 NW6       29.97F
COLUMBIA OWENS SUNNY     67  53  61 W5        29.98F
DARLINGTON     SUNNY     70  54  56 NW5       29.96F
FLORENCE       SUNNY     70  53  54 NW9       29.95F
ORANGEBURG     SUNNY     69  53  56 NW6       29.98F
SUMTER SHAW    SUNNY     67  54  61 NW8       29.95F
NEWBERRY       FAIR      64  55  72 W5        30.00F
AIKEN          FAIR      70  55  60 W3        30.01F
BARNWELL       FAIR      72  54  53 NW6       29.99F
MANNING        FAIR      72  50  46 CALM      29.97S
CAMDEN         FAIR      64  52  63 CALM      29.98S
LANCASTER      FAIR      64  55  72 NW5       29.97S
WINNSBORO      FAIR      66  54  63 CALM      29.96F


...EASTERN AND COASTAL SOUTH CAROLINA...

CITY           SKY/WX    TMP DP  RH WIND       PRES   REMARKS
MYRTLE BEACH   SUNNY     72  54  53 NW9       29.96S
N MYRTLE BCH   SUNNY     72  54  53 NW6       29.94F
CONWAY         FAIR      70  55  60 W3        29.95F HAZE
MARION         FAIR      68  54  60 W7        29.95F
HARTSVILLE     FAIR      68  37  32 CALM      29.96F
FLORENCE       SUNNY     70  53  54 NW9       29.95F
DARLINGTON     SUNNY     70  54  56 NW5       29.96F
CHARLESTON APT SUNNY     75  54  47 NW10      29.97S
MOUNT PLEASANT FAIR      73  55  53 NW7       29.97S
WALTERBORO     SUNNY     73  50  43 NW6       29.98F
BEAUFORT       SUNNY     73  56  54 W7        29.98F


...EASTERN GEORGIA...

CITY           SKY/WX    TMP DP  RH WIND       PRES   REMARKS
AUGUSTA BUSH F SUNNY     69  52  54 CALM      29.99F
AUGUSTA DANIEL SUNNY     70  48  45 VRB6      29.99F
THOMSON        SUNNY     68  59  72 W8        30.04S
WASHINGTON     FAIR      68  57  68 NW5       30.01S
CLAXTON        FAIR      72  55  56 W7        30.00F
SYLVANIA       SUNNY     74  60  59 NW7       30.01S
STATESBORO     SUNNY     71  56  60 W5        30.00S
SAVANNAH       SUNNY     74  55  51 N6        30.00S


...SOUTHERN NORTH CAROLINA...

CITY           SKY/WX    TMP DP  RH WIND       PRES   REMARKS
CHARLOTTE      MOSUNNY   65  50  58 CALM      29.96F
MONROE         SUNNY     68  48  48 N6        29.95F
WADESBORO      SUNNY     66  52  59 CALM      29.95F
ROCKINGHAM     SUNNY     64  52  65 W3        29.95F
RUTHERFORDTON  SUNNY     67  49  53 W15G26    29.97F
ASHEVILLE      SUNNY     59  49  69 N6        30.00F

$$



USA.gov is the U.S. government's official web portal to all federal, state and local government web resources and services.